Location: Unspecified
(43.3830°N, 0.0000°E)
Time: 20:25:40
(UTC+00:00)

Vanguard 2 - Pass Details

Date: 19 June 2019
Orbit: 554 x 2938 km, 32.9° (Epoch: 21 August)

Event Time Altitude Azimuth Distance (km) Brightness Sun altitude
Rises 13:19:44 0° 268° (W) 4,609 11.8 64.3°
Reaches altitude 10° 13:22:37 10° 260° (W) 3,920 11.6 64.0°
Maximum altitude 13:32:33 40° 197° (SSW) 3,021 11.8 62.6°
Drops below altitude 10° 13:46:53 10° 136° (SE) 5,594 12.0 60.5°
Sets 13:52:00 0° 130° (SE) 6,742 12.2 59.7°
